Location: Easthampton
(42.2676°N, 72.6690°W)
Time: 14:43:59
(UTC+00:00)

RS-44 - Pass Details

Date: 20 April 2024
Orbit: 1174 x 1511 km, 82.5° (Epoch: 25 May)

Event Time Altitude Azimuth Distance (km) Brightness Sun altitude
Rises 02:31:02 0° 231° (SW) 4,641 ? -27.4°
Reaches altitude 10° 02:34:46 10° 245° (WSW) 3,649 ? -27.8°
Maximum altitude 02:41:28 24° 295° (WNW) 2,690 ? -28.6°
Drops below altitude 10° 02:48:01 10° 345° (NNW) 3,529 ? -29.3°
Sets 02:51:36 0° 360° (N) 4,456 ? -29.7°
